Time,TemperatureF,DewpointF,PressureIn,WindDirection,WindDirectionDegrees,WindSpeedMPH,WindSpeedGustMPH,Humidity,HourlyPrecipIn,Conditions,Clouds,dailyrainin,SoftwareType,DateUTC
2013-07-08 00:00:00,84.2,71.6,29.92,SE,141,6.0,6.0,66,0.00,,,0.00,Wunderground v.1.15,2013-07-08 05:00:00,
2013-07-08 00:10:00,84.0,71.4,29.92,SE,142,6.0,6.0,66,0.00,,,0.00,Wunderground v.1.15,2013-07-08 05:10:00,
2013-07-08 00:15:00,83.9,71.3,29.92,SSE,148,6.0,6.0,66,0.00,,,0.00,Wunderground v.1.15,2013-07-08 05:15:00,
2013-07-08 00:20:00,83.8,71.2,29.92,SE,144,4.0,6.0,66,0.00,,,0.00,Wunderground v.1.15,2013-07-08 05:20:00,
2013-07-08 00:30:00,83.7,71.6,29.93,SE,144,6.0,6.0,67,0.00,,,0.00,Wunderground v.1.15,2013-07-08 05:30:00,
2013-07-08 00:35:00,83.5,71.4,29.92,SSE,148,6.0,6.0,67,0.00,,,0.00,Wunderground v.1.15,2013-07-08 05:35:00,
2013-07-08 00:40:00,83.4,71.3,29.92,SE,145,6.0,6.0,67,0.00,,,0.00,Wunderground v.1.15,2013-07-08 05:40:00,
2013-07-08 00:50:00,83.1,71.4,29.93,SE,143,5.0,7.0,68,0.00,,,0.00,Wunderground v.1.15,2013-07-08 05:50:00,
2013-07-08 00:55:00,82.9,71.3,29.92,SE,144,5.0,8.0,68,0.00,,,0.00,Wunderground v.1.15,2013-07-08 05:55:00,
2013-07-08 01:00:00,82.7,71.1,29.92,SE,144,5.0,5.0,68,0.00,,,0.00,Wunderground v.1.15,2013-07-08 06:00:00,
2013-07-08 01:10:00,82.5,70.9,29.92,SSE,153,6.0,6.0,68,0.00,,,0.00,Wunderground v.1.15,2013-07-08 06:10:00,
2013-07-08 01:15:00,82.4,70.8,29.93,SSE,147,5.0,6.0,68,0.00,,,0.00,Wunderground v.1.15,2013-07-08 06:15:00,
2013-07-08 01:20:00,82.3,70.7,29.93,SSE,149,4.0,4.0,68,0.00,,,0.00,Wunderground v.1.15,2013-07-08 06:20:00,
2013-07-08 01:25:00,82.2,70.6,29.93,SE,140,3.0,4.0,68,0.00,,,0.00,Wunderground v.1.15,2013-07-08 06:25:00,
2013-07-08 01:30:00,82.1,70.5,29.93,SE,146,3.0,3.0,68,0.00,,,0.00,Wunderground v.1.15,2013-07-08 06:30:00,
2013-07-08 01:40:00,81.8,70.6,29.93,SE,146,4.0,4.0,69,0.00,,,0.00,Wunderground v.1.15,2013-07-08 06:40:00,
2013-07-08 01:45:00,81.7,70.5,29.93,SE,146,4.0,4.0,69,0.00,,,0.00,Wunderground v.1.15,2013-07-08 06:45:00,
2013-07-08 01:50:00,81.6,70.4,29.93,SSE,148,3.0,3.0,69,0.00,,,0.00,Wunderground v.1.15,2013-07-08 06:50:00,
2013-07-08 01:55:00,81.4,70.7,29.93,SE,146,3.0,3.0,70,0.00,,,0.00,Wunderground v.1.15,2013-07-08 06:55:00,
2013-07-08 02:00:00,81.3,70.6,29.93,SE,146,2.0,2.0,70,0.00,,,0.00,Wunderground v.1.15,2013-07-08 07:00:00,
2013-07-08 02:10:00,81.0,70.7,29.93,SE,146,0.0,0.0,71,0.00,,,0.00,Wunderground v.1.15,2013-07-08 07:10:00,
2013-07-08 02:15:00,80.8,70.5,29.93,SE,146,0.0,0.0,71,0.00,,,0.00,Wunderground v.1.15,2013-07-08 07:15:00,
2013-07-08 02:25:00,80.4,70.5,29.94,SE,146,0.0,0.0,72,0.00,,,0.00,Wunderground v.1.15,2013-07-08 07:25:00,
2013-07-08 02:30:00,80.2,70.4,29.94,SE,146,0.0,0.0,72,0.00,,,0.00,Wunderground v.1.15,2013-07-08 07:30:00,
2013-07-08 02:35:00,80.0,70.6,29.94,SE,142,2.0,2.0,73,0.00,,,0.00,Wunderground v.1.15,2013-07-08 07:35:00,
2013-07-08 02:40:00,79.8,70.4,29.94,SE,136,3.0,3.0,73,0.00,,,0.00,Wunderground v.1.15,2013-07-08 07:40:00,
2013-07-08 02:45:00,79.7,70.3,29.94,SE,136,3.0,3.0,73,0.00,,,0.00,Wunderground v.1.15,2013-07-08 07:45:00,
2013-07-08 02:55:00,79.5,70.5,29.94,SE,136,3.0,3.0,74,0.00,,,0.00,Wunderground v.1.15,2013-07-08 07:55:00,
2013-07-08 03:00:00,79.3,70.3,29.94,SE,136,4.0,4.0,74,0.00,,,0.00,Wunderground v.1.15,2013-07-08 08:00:00,
2013-07-08 03:10:00,79.0,70.4,29.94,SE,140,3.0,3.0,75,0.00,,,0.00,Wunderground v.1.15,2013-07-08 08:10:00,
2013-07-08 03:15:00,78.9,70.3,29.94,SE,140,1.0,3.0,75,0.00,,,0.00,Wunderground v.1.15,2013-07-08 08:15:00,
2013-07-08 03:20:00,78.8,70.2,29.94,SE,140,0.0,0.0,75,0.00,,,0.00,Wunderground v.1.15,2013-07-08 08:20:00,
2013-07-08 03:25:00,78.7,70.1,29.94,SE,140,0.0,0.0,75,0.00,,,0.00,Wunderground v.1.15,2013-07-08 08:25:00,
2013-07-08 03:35:00,78.6,70.4,29.94,SE,140,1.0,6.0,76,0.00,,,0.00,Wunderground v.1.15,2013-07-08 08:35:00,
2013-07-08 03:40:00,78.6,70.4,29.94,SE,140,1.0,1.0,76,0.00,,,0.00,Wunderground v.1.15,2013-07-08 08:40:00,
2013-07-08 03:45:00,78.5,70.3,29.95,SE,140,1.0,5.0,76,0.00,,,0.00,Wunderground v.1.15,2013-07-08 08:45:00,
2013-07-08 03:50:00,78.4,70.2,29.94,SE,144,1.0,7.0,76,0.00,,,0.00,Wunderground v.1.15,2013-07-08 08:50:00,
2013-07-08 03:55:00,78.4,70.6,29.95,SSE,148,3.0,7.0,77,0.00,,,0.00,Wunderground v.1.15,2013-07-08 08:55:00,
2013-07-08 04:00:00,78.4,70.6,29.95,SSE,148,3.0,3.0,77,0.00,,,0.00,Wunderground v.1.15,2013-07-08 09:00:00,
2013-07-08 04:10:00,78.2,70.4,29.95,SSE,149,2.0,4.0,77,0.00,,,0.00,Wunderground v.1.15,2013-07-08 09:10:00,
2013-07-08 04:20:00,78.1,70.7,29.95,SSE,147,5.0,5.0,78,0.00,,,0.00,Wunderground v.1.15,2013-07-08 09:20:00,
2013-07-08 04:25:00,78.0,70.6,29.95,SSE,161,5.0,5.0,78,0.00,,,0.00,Wunderground v.1.15,2013-07-08 09:25:00,
2013-07-08 04:30:00,78.1,70.7,29.95,SSE,157,3.0,3.0,78,0.00,,,0.00,Wunderground v.1.15,2013-07-08 09:30:00,
2013-07-08 04:35:00,78.1,71.1,29.95,SSE,154,3.0,6.0,79,0.00,,,0.00,Wunderground v.1.15,2013-07-08 09:35:00,
2013-07-08 04:40:00,78.0,71.0,29.96,SSE,153,4.0,4.0,79,0.00,,,0.00,Wunderground v.1.15,2013-07-08 09:40:00,
2013-07-08 04:50:00,78.0,71.0,29.96,SSE,153,1.0,1.0,79,0.00,,,0.00,Wunderground v.1.15,2013-07-08 09:50:00,
2013-07-08 04:55:00,77.9,70.9,29.97,SSE,153,0.0,1.0,79,0.00,,,0.00,Wunderground v.1.15,2013-07-08 09:55:00,
2013-07-08 05:00:00,77.7,70.7,29.97,SSE,148,1.0,2.0,79,0.00,,,0.00,Wunderground v.1.15,2013-07-08 10:00:00,
2013-07-08 05:10:00,77.4,70.7,29.97,SSE,148,1.0,1.0,80,0.00,,,0.00,Wunderground v.1.15,2013-07-08 10:10:00,
2013-07-08 05:15:00,77.3,70.6,29.98,SSE,148,0.0,1.0,80,0.00,,,0.00,Wunderground v.1.15,2013-07-08 10:15:00,
2013-07-08 05:20:00,77.1,70.5,29.98,SSE,148,0.0,0.0,80,0.00,,,0.00,Wunderground v.1.15,2013-07-08 10:20:00,
2013-07-08 05:30:00,76.9,70.6,29.98,SSE,148,0.0,6.0,81,0.00,,,0.00,Wunderground v.1.15,2013-07-08 10:30:00,
2013-07-08 05:35:00,76.8,70.5,29.98,SSE,148,0.0,6.0,81,0.00,,,0.00,Wunderground v.1.15,2013-07-08 10:35:00,
2013-07-08 05:40:00,76.6,70.7,29.98,SSE,148,0.0,0.0,82,0.00,,,0.00,Wunderground v.1.15,2013-07-08 10:40:00,
2013-07-08 05:45:00,76.5,70.6,29.98,SSE,148,1.0,5.0,82,0.00,,,0.00,Wunderground v.1.15,2013-07-08 10:45:00,
2013-07-08 05:50:00,76.4,70.5,29.98,SSE,148,1.0,1.0,82,0.00,,,0.00,Wunderground v.1.15,2013-07-08 10:50:00,
2013-07-08 06:00:00,76.2,70.7,29.99,SSE,147,1.0,1.0,83,0.00,,,0.00,Wunderground v.1.15,2013-07-08 11:00:00,
2013-07-08 06:10:00,76.1,70.6,29.99,SE,146,0.0,0.0,83,0.00,,,0.00,Wunderground v.1.15,2013-07-08 11:10:00,
2013-07-08 06:15:00,76.2,71.0,29.99,SSE,157,1.0,1.0,84,0.00,,,0.00,Wunderground v.1.15,2013-07-08 11:15:00,
2013-07-08 06:20:00,76.2,71.0,29.99,SSE,153,2.0,2.0,84,0.00,,,0.00,Wunderground v.1.15,2013-07-08 11:20:00,
2013-07-08 06:25:00,76.3,71.1,29.99,SSE,165,4.0,8.0,84,0.00,,,0.00,Wunderground v.1.15,2013-07-08 11:25:00,
2013-07-08 06:30:00,76.4,71.2,29.99,South,169,5.0,7.0,84,0.00,,,0.00,Wunderground v.1.15,2013-07-08 11:30:00,
2013-07-08 06:35:00,76.5,71.3,29.99,SSE,158,7.0,7.0,84,0.00,,,0.00,Wunderground v.1.15,2013-07-08 11:35:00,
2013-07-08 06:45:00,76.5,71.3,30.00,SE,145,5.0,7.0,84,0.00,,,0.00,Wunderground v.1.15,2013-07-08 11:45:00,
2013-07-08 06:50:00,76.5,71.3,30.00,SSE,159,6.0,6.0,84,0.00,,,0.00,Wunderground v.1.15,2013-07-08 11:50:00,
2013-07-08 06:55:00,76.6,71.4,30.00,SSE,164,4.0,6.0,84,0.00,,,0.00,Wunderground v.1.15,2013-07-08 11:55:00,
2013-07-08 07:00:00,76.7,71.5,30.00,SSE,155,5.0,7.0,84,0.00,,,0.00,Wunderground v.1.15,2013-07-08 12:00:00,
2013-07-08 07:10:00,76.9,71.7,30.01,SSE,158,4.0,9.0,84,0.00,,,0.00,Wunderground v.1.15,2013-07-08 12:10:00,
2013-07-08 07:15:00,76.9,71.7,30.01,SSE,155,4.0,9.0,84,0.00,,,0.00,Wunderground v.1.15,2013-07-08 12:15:00,
2013-07-08 07:20:00,77.0,71.8,30.01,SSE,163,5.0,5.0,84,0.00,,,0.00,Wunderground v.1.15,2013-07-08 12:20:00,
2013-07-08 07:30:00,77.2,72.0,30.01,South,173,3.0,10.0,84,0.00,,,0.00,Wunderground v.1.15,2013-07-08 12:30:00,
2013-07-08 07:35:00,77.3,72.1,30.01,SSE,159,5.0,10.0,84,0.00,,,0.00,Wunderground v.1.15,2013-07-08 12:35:00,
2013-07-08 07:40:00,77.4,72.2,30.01,South,180,6.0,6.0,84,0.00,,,0.00,Wunderground v.1.15,2013-07-08 12:40:00,
2013-07-08 07:45:00,77.5,72.3,30.01,South,181,6.0,9.0,84,0.00,,,0.00,Wunderground v.1.15,2013-07-08 12:45:00,
2013-07-08 07:50:00,77.7,72.1,30.01,SSE,165,6.0,7.0,83,0.00,,,0.00,Wunderground v.1.15,2013-07-08 12:50:00,
2013-07-08 08:00:00,78.0,72.4,30.01,South,171,6.0,6.0,83,0.00,,,0.00,Wunderground v.1.15,2013-07-08 13:00:00,
2013-07-08 08:10:00,78.5,72.9,30.02,SSE,150,6.0,9.0,83,0.00,,,0.00,Wunderground v.1.15,2013-07-08 13:10:00,
2013-07-08 08:15:00,78.8,72.8,30.02,SSE,159,5.0,9.0,82,0.00,,,0.00,Wunderground v.1.15,2013-07-08 13:15:00,
2013-07-08 08:20:00,79.0,73.0,30.02,SSE,165,7.0,7.0,82,0.00,,,0.00,Wunderground v.1.15,2013-07-08 13:20:00,
2013-07-08 08:25:00,79.1,73.1,30.02,SE,130,7.0,7.0,82,0.00,,,0.00,Wunderground v.1.15,2013-07-08 13:25:00,
2013-07-08 08:30:00,79.1,73.1,30.02,SE,141,6.0,11.0,82,0.00,,,0.00,Wunderground v.1.15,2013-07-08 13:30:00,
2013-07-08 08:40:00,79.5,73.2,30.03,SSE,162,6.0,6.0,81,0.00,,,0.00,Wunderground v.1.15,2013-07-08 13:40:00,
2013-07-08 08:45:00,79.9,73.5,30.03,South,176,7.0,11.0,81,0.00,,,0.00,Wunderground v.1.15,2013-07-08 13:45:00,
2013-07-08 08:50:00,80.4,74.0,30.03,SSE,157,7.0,11.0,81,0.00,,,0.00,Wunderground v.1.15,2013-07-08 13:50:00,
2013-07-08 08:55:00,80.7,74.0,30.03,SSE,167,6.0,11.0,80,0.00,,,0.00,Wunderground v.1.15,2013-07-08 13:55:00,
2013-07-08 09:00:00,80.9,73.8,30.03,SSE,161,6.0,6.0,79,0.00,,,0.00,Wunderground v.1.15,2013-07-08 14:00:00,
2013-07-08 09:10:00,81.1,73.6,30.04,SSW,194,6.0,6.0,78,0.00,,,0.00,Wunderground v.1.15,2013-07-08 14:10:00,
2013-07-08 09:15:00,81.3,73.8,30.03,South,186,6.0,7.0,78,0.00,,,0.00,Wunderground v.1.15,2013-07-08 14:15:00,
2013-07-08 09:20:00,81.4,73.5,30.03,South,184,7.0,7.0,77,0.00,,,0.00,Wunderground v.1.15,2013-07-08 14:20:00,
2013-07-08 09:30:00,83.7,74.9,30.03,South,169,5.0,7.0,75,0.00,,,0.00,Wunderground v.1.15,2013-07-08 14:30:00,
2013-07-08 09:35:00,84.5,75.3,30.04,SSW,209,6.0,7.0,74,0.00,,,0.00,Wunderground v.1.15,2013-07-08 14:35:00,
2013-07-08 09:40:00,84.5,74.5,30.03,South,171,5.0,11.0,72,0.00,,,0.00,Wunderground v.1.15,2013-07-08 14:40:00,
2013-07-08 09:45:00,84.6,74.6,30.03,South,186,4.0,11.0,72,0.00,,,0.00,Wunderground v.1.15,2013-07-08 14:45:00,
2013-07-08 09:55:00,85.0,75.0,30.03,South,187,5.0,7.0,72,0.00,,,0.00,Wunderground v.1.15,2013-07-08 14:55:00,
2013-07-08 10:00:00,85.2,74.3,30.03,South,184,5.0,5.0,70,0.00,,,0.00,Wunderground v.1.15,2013-07-08 15:00:00,
2013-07-08 10:10:00,86.0,75.5,30.03,SSE,159,3.0,3.0,71,0.00,,,0.00,Wunderground v.1.15,2013-07-08 15:10:00,
2013-07-08 10:15:00,85.8,74.0,30.03,SW,216,2.0,3.0,68,0.00,,,0.00,Wunderground v.1.15,2013-07-08 15:15:00,
2013-07-08 10:20:00,85.4,74.9,30.03,SSW,207,2.0,2.0,71,0.00,,,0.00,Wunderground v.1.15,2013-07-08 15:20:00,
2013-07-08 10:25:00,85.5,74.6,30.03,SSW,194,4.0,7.0,70,0.00,,,0.00,Wunderground v.1.15,2013-07-08 15:25:00,
2013-07-08 10:30:00,84.9,74.0,30.02,SSE,168,4.0,5.0,70,0.00,,,0.00,Wunderground v.1.15,2013-07-08 15:30:00,
2013-07-08 10:35:00,85.7,74.4,30.02,SE,128,3.0,11.0,69,0.00,,,0.00,Wunderground v.1.15,2013-07-08 15:35:00,
2013-07-08 10:45:00,87.6,75.3,30.02,SE,136,5.0,7.0,67,0.00,,,0.00,Wunderground v.1.15,2013-07-08 15:45:00,
2013-07-08 10:50:00,88.6,75.3,30.02,SSE,167,4.0,4.0,65,0.00,,,0.00,Wunderground v.1.15,2013-07-08 15:50:00,
2013-07-08 10:55:00,87.9,74.2,30.02,SSE,161,3.0,4.0,64,0.00,,,0.00,Wunderground v.1.15,2013-07-08 15:55:00,
2013-07-08 11:00:00,87.2,74.0,30.03,SSW,211,4.0,5.0,65,0.00,,,0.00,Wunderground v.1.15,2013-07-08 16:00:00,
2013-07-08 11:10:00,88.2,74.0,30.03,South,177,4.0,6.0,63,0.00,,,0.00,Wunderground v.1.15,2013-07-08 16:10:00,
2013-07-08 11:15:00,87.9,73.7,30.03,South,176,6.0,6.0,63,0.00,,,0.00,Wunderground v.1.15,2013-07-08 16:15:00,
2013-07-08 11:25:00,88.8,74.1,30.03,SSE,163,6.0,6.0,62,0.00,,,0.00,Wunderground v.1.15,2013-07-08 16:25:00,
2013-07-08 11:30:00,89.5,74.8,30.03,SSE,167,7.0,7.0,62,0.00,,,0.00,Wunderground v.1.15,2013-07-08 16:30:00,
2013-07-08 11:35:00,90.1,74.3,30.03,SSE,153,6.0,11.0,60,0.00,,,0.00,Wunderground v.1.15,2013-07-08 16:35:00,
2013-07-08 11:40:00,89.9,74.2,30.02,South,176,7.0,9.0,60,0.00,,,0.00,Wunderground v.1.15,2013-07-08 16:40:00,
2013-07-08 11:45:00,90.3,75.0,30.02,SE,135,8.0,9.0,61,0.00,,,0.00,Wunderground v.1.15,2013-07-08 16:45:00,
2013-07-08 11:55:00,90.7,74.4,30.02,SE,137,7.0,7.0,59,0.00,,,0.00,Wunderground v.1.15,2013-07-08 16:55:00,
2013-07-08 12:00:00,91.0,74.7,30.02,SE,145,7.0,10.0,59,0.00,,,0.00,Wunderground v.1.15,2013-07-08 17:00:00,
2013-07-08 12:10:00,91.1,74.8,30.02,SSE,159,6.0,6.0,59,0.00,,,0.00,Wunderground v.1.15,2013-07-08 17:10:00,
2013-07-08 12:15:00,90.9,74.1,30.01,South,169,5.0,6.0,58,0.00,,,0.00,Wunderground v.1.15,2013-07-08 17:15:00,
2013-07-08 12:25:00,91.0,74.2,30.01,South,184,6.0,9.0,58,0.00,,,0.00,Wunderground v.1.15,2013-07-08 17:25:00,
2013-07-08 12:30:00,91.5,74.1,30.01,SSE,165,6.0,8.0,57,0.00,,,0.00,Wunderground v.1.15,2013-07-08 17:30:00,
2013-07-08 12:40:00,91.6,73.7,30.01,South,178,6.0,6.0,56,0.00,,,0.00,Wunderground v.1.15,2013-07-08 17:40:00,
2013-07-08 12:45:00,92.1,74.1,30.01,South,189,4.0,6.0,56,0.00,,,0.00,Wunderground v.1.15,2013-07-08 17:45:00,
2013-07-08 12:50:00,92.7,72.5,30.01,SE,139,4.0,5.0,52,0.00,,,0.00,Wunderground v.1.15,2013-07-08 17:50:00,
2013-07-08 12:55:00,92.2,73.2,30.00,South,173,4.0,7.0,54,0.00,,,0.00,Wunderground v.1.15,2013-07-08 17:55:00,
2013-07-08 13:05:00,92.4,72.8,30.00,South,189,4.0,10.0,53,0.00,,,0.00,Wunderground v.1.15,2013-07-08 18:05:00,
2013-07-08 13:10:00,91.5,72.5,30.00,SE,142,5.0,8.0,54,0.00,,,0.00,Wunderground v.1.15,2013-07-08 18:10:00,
2013-07-08 13:20:00,93.0,75.0,30.00,SSE,163,6.0,13.0,56,0.00,,,0.00,Wunderground v.1.15,2013-07-08 18:20:00,
2013-07-08 13:25:00,92.8,73.2,30.00,SSE,154,6.0,13.0,53,0.00,,,0.00,Wunderground v.1.15,2013-07-08 18:25:00,
2013-07-08 13:30:00,92.6,73.0,30.00,ESE,119,7.0,7.0,53,0.00,,,0.00,Wunderground v.1.15,2013-07-08 18:30:00,
2013-07-08 13:35:00,92.2,72.6,30.00,SSW,204,6.0,7.0,53,0.00,,,0.00,Wunderground v.1.15,2013-07-08 18:35:00,
2013-07-08 13:40:00,93.0,73.9,30.00,SE,144,6.0,8.0,54,0.00,,,0.00,Wunderground v.1.15,2013-07-08 18:40:00,
2013-07-08 13:45:00,93.7,73.4,29.99,SSE,150,6.0,8.0,52,0.00,,,0.00,Wunderground v.1.15,2013-07-08 18:45:00,
2013-07-08 13:50:00,93.7,73.4,30.00,SSE,162,5.0,5.0,52,0.00,,,0.00,Wunderground v.1.15,2013-07-08 18:50:00,
2013-07-08 14:10:00,95.1,71.7,29.99,South,169,6.0,6.0,47,0.00,,,0.00,Wunderground v.1.15,2013-07-08 19:10:00,
2013-07-08 14:15:00,94.9,72.1,29.99,SSW,194,6.0,7.0,48,0.00,,,0.00,Wunderground v.1.15,2013-07-08 19:15:00,
2013-07-08 14:25:00,93.7,72.3,29.99,SSE,161,7.0,9.0,50,0.00,,,0.00,Wunderground v.1.15,2013-07-08 19:25:00,
2013-07-08 15:10:00,95.7,71.6,29.98,SSE,153,5.0,5.0,46,0.00,,,0.00,Wunderground v.1.15,2013-07-08 20:10:00,
2013-07-08 15:25:00,95.1,71.7,29.97,SSE,151,4.0,13.0,47,0.00,,,0.00,Wunderground v.1.15,2013-07-08 20:25:00,
2013-07-08 15:30:00,95.6,72.2,29.97,SSW,207,5.0,5.0,47,0.00,,,0.00,Wunderground v.1.15,2013-07-08 20:30:00,
2013-07-08 15:35:00,96.1,71.3,29.97,SE,142,5.0,6.0,45,0.00,,,0.00,Wunderground v.1.15,2013-07-08 20:35:00,
2013-07-08 15:40:00,96.3,71.5,29.97,SSE,150,6.0,6.0,45,0.00,,,0.00,Wunderground v.1.15,2013-07-08 20:40:00,
2013-07-08 15:55:00,97.4,72.5,29.96,ESE,122,7.0,8.0,45,0.00,,,0.00,Wunderground v.1.15,2013-07-08 20:55:00,
2013-07-08 16:00:00,97.6,70.6,29.96,SE,144,7.0,10.0,42,0.00,,,0.00,Wunderground v.1.15,2013-07-08 21:00:00,
2013-07-08 16:10:00,97.5,71.2,29.96,SE,142,7.0,8.0,43,0.00,,,0.00,Wunderground v.1.15,2013-07-08 21:10:00,
2013-07-08 16:15:00,97.6,70.6,29.95,ESE,116,7.0,8.0,42,0.00,,,0.00,Wunderground v.1.15,2013-07-08 21:15:00,
2013-07-08 16:20:00,97.8,70.1,29.95,South,178,8.0,8.0,41,0.00,,,0.00,Wunderground v.1.15,2013-07-08 21:20:00,
2013-07-08 16:30:00,98.0,71.7,29.95,ESE,122,7.0,12.0,43,0.00,,,0.00,Wunderground v.1.15,2013-07-08 21:30:00,
2013-07-08 16:45:00,98.6,70.8,29.94,SE,130,5.0,6.0,41,0.00,,,0.00,Wunderground v.1.15,2013-07-08 21:45:00,
2013-07-08 16:50:00,98.5,71.4,29.95,SSW,202,8.0,8.0,42,0.00,,,0.00,Wunderground v.1.15,2013-07-08 21:50:00,
2013-07-08 17:00:00,95.9,73.7,29.95,SSE,149,12.0,12.0,49,0.00,,,0.00,Wunderground v.1.15,2013-07-08 22:00:00,
2013-07-08 17:10:00,94.6,72.5,29.95,SE,136,13.0,13.0,49,0.00,,,0.00,Wunderground v.1.15,2013-07-08 22:10:00,
2013-07-08 17:15:00,94.2,73.3,29.95,SSE,157,12.0,17.0,51,0.00,,,0.00,Wunderground v.1.15,2013-07-08 22:15:00,
2013-07-08 17:25:00,94.3,72.2,29.95,SSE,150,11.0,11.0,49,0.00,,,0.00,Wunderground v.1.15,2013-07-08 22:25:00,
2013-07-08 17:30:00,94.2,72.7,29.95,SSE,150,11.0,11.0,50,0.00,,,0.00,Wunderground v.1.15,2013-07-08 22:30:00,
2013-07-08 17:35:00,94.4,72.9,29.95,SSE,154,10.0,18.0,50,0.00,,,0.00,Wunderground v.1.15,2013-07-08 22:35:00,
2013-07-08 17:45:00,94.4,72.3,29.94,SSE,157,10.0,15.0,49,0.00,,,0.00,Wunderground v.1.15,2013-07-08 22:45:00,
2013-07-08 17:55:00,94.1,72.6,29.94,South,177,10.0,10.0,50,0.00,,,0.00,Wunderground v.1.15,2013-07-08 22:55:00,
2013-07-08 18:05:00,93.6,72.2,29.94,SE,142,11.0,14.0,50,0.00,,,0.00,Wunderground v.1.15,2013-07-08 23:05:00,
2013-07-08 18:10:00,93.5,71.5,29.94,SSE,155,9.0,9.0,49,0.00,,,0.00,Wunderground v.1.15,2013-07-08 23:10:00,
2013-07-08 18:20:00,93.6,71.6,29.94,South,176,7.0,11.0,49,0.00,,,0.00,Wunderground v.1.15,2013-07-08 23:20:00,
2013-07-08 18:30:00,93.4,70.8,29.93,SSE,151,6.0,13.0,48,0.00,,,0.00,Wunderground v.1.15,2013-07-08 23:30:00,
2013-07-08 18:35:00,93.1,71.1,29.94,SSW,211,8.0,13.0,49,0.00,,,0.00,Wunderground v.1.15,2013-07-08 23:35:00,
2013-07-08 18:40:00,92.8,70.8,29.94,South,184,10.0,12.0,49,0.00,,,0.00,Wunderground v.1.15,2013-07-08 23:40:00,
2013-07-08 18:50:00,92.4,70.5,29.93,SE,135,8.0,8.0,49,0.00,,,0.00,Wunderground v.1.15,2013-07-08 23:50:00,
2013-07-08 18:55:00,92.2,70.3,29.94,SSE,161,8.0,8.0,49,0.00,,,0.00,Wunderground v.1.15,2013-07-08 23:55:00,
2013-07-08 19:00:00,92.3,71.0,29.94,SE,142,8.0,12.0,50,0.00,,,0.00,Wunderground v.1.15,2013-07-09 00:00:00,
2013-07-08 19:10:00,92.2,70.3,29.94,SSE,165,7.0,7.0,49,0.00,,,0.00,Wunderground v.1.15,2013-07-09 00:10:00,
2013-07-08 19:20:00,91.5,69.6,29.94,SSE,148,7.0,13.0,49,0.00,,,0.00,Wunderground v.1.15,2013-07-09 00:20:00,
2013-07-08 19:30:00,90.6,70.0,29.94,SSE,163,8.0,8.0,51,0.00,,,0.00,Wunderground v.1.15,2013-07-09 00:30:00,
2013-07-08 19:35:00,90.4,69.8,29.94,SSE,156,7.0,8.0,51,0.00,,,0.00,Wunderground v.1.15,2013-07-09 00:35:00,
2013-07-08 19:40:00,90.1,69.5,29.94,South,182,5.0,8.0,51,0.00,,,0.00,Wunderground v.1.15,2013-07-09 00:40:00,
2013-07-08 19:50:00,89.6,69.6,29.95,South,173,7.0,12.0,52,0.00,,,0.00,Wunderground v.1.15,2013-07-09 00:50:00,
2013-07-08 19:55:00,89.3,68.8,29.94,South,173,7.0,12.0,51,0.00,,,0.00,Wunderground v.1.15,2013-07-09 00:55:00,
2013-07-08 20:00:00,89.1,69.2,29.95,South,174,6.0,6.0,52,0.00,,,0.00,Wunderground v.1.15,2013-07-09 01:00:00,
2013-07-08 20:15:00,88.6,69.3,29.94,SSE,154,5.0,9.0,53,0.00,,,0.00,Wunderground v.1.15,2013-07-09 01:15:00,
2013-07-08 20:20:00,88.4,69.1,29.95,South,183,4.0,5.0,53,0.00,,,0.00,Wunderground v.1.15,2013-07-09 01:20:00,
2013-07-08 20:30:00,88.1,69.4,29.95,SSE,168,6.0,6.0,54,0.00,,,0.00,Wunderground v.1.15,2013-07-09 01:30:00,
2013-07-08 20:35:00,87.9,69.2,29.95,SSE,157,5.0,9.0,54,0.00,,,0.00,Wunderground v.1.15,2013-07-09 01:35:00,
2013-07-08 20:40:00,87.7,69.5,29.95,SSE,164,4.0,10.0,55,0.00,,,0.00,Wunderground v.1.15,2013-07-09 01:40:00,
2013-07-08 20:45:00,87.6,70.0,29.95,SSE,167,5.0,10.0,56,0.00,,,0.00,Wunderground v.1.15,2013-07-09 01:45:00,
2013-07-08 21:00:00,87.1,70.0,29.95,SSE,161,6.0,13.0,57,0.00,,,0.00,Wunderground v.1.15,2013-07-09 02:00:00,
2013-07-08 21:10:00,86.8,69.7,29.96,SSE,163,5.0,7.0,57,0.00,,,0.00,Wunderground v.1.15,2013-07-09 02:10:00,
2013-07-08 21:20:00,86.5,70.0,29.96,SSE,163,6.0,6.0,58,0.00,,,0.00,Wunderground v.1.15,2013-07-09 02:20:00,
2013-07-08 21:25:00,86.5,69.5,29.96,South,169,6.0,6.0,57,0.00,,,0.00,Wunderground v.1.15,2013-07-09 02:25:00,
2013-07-08 21:30:00,86.3,69.3,29.97,South,173,5.0,5.0,57,0.00,,,0.00,Wunderground v.1.15,2013-07-09 02:30:00,
2013-07-08 21:35:00,86.2,69.2,29.97,SSE,162,4.0,5.0,57,0.00,,,0.00,Wunderground v.1.15,2013-07-09 02:35:00,
2013-07-08 21:45:00,86.0,69.0,29.97,SSE,157,5.0,9.0,57,0.00,,,0.00,Wunderground v.1.15,2013-07-09 02:45:00,
2013-07-08 21:50:00,85.9,68.4,29.98,South,180,5.0,5.0,56,0.00,,,0.00,Wunderground v.1.15,2013-07-09 02:50:00,
2013-07-08 22:01:00,85.8,67.8,29.99,SSE,166,6.0,7.0,55,0.00,,,0.00,Wunderground v.1.15,2013-07-09 03:01:00,
2013-07-08 22:10:00,85.6,67.0,29.99,South,169,6.0,10.0,54,0.00,,,0.00,Wunderground v.1.15,2013-07-09 03:10:00,
2013-07-08 22:15:00,85.5,67.0,30.00,SSW,197,6.0,10.0,54,0.00,,,0.00,Wunderground v.1.15,2013-07-09 03:15:00,
2013-07-08 22:20:00,85.4,66.3,30.00,South,171,5.0,9.0,53,0.00,,,0.00,Wunderground v.1.15,2013-07-09 03:20:00,
2013-07-08 22:35:00,85.2,64.5,30.01,SSE,153,5.0,9.0,50,0.00,,,0.00,Wunderground v.1.15,2013-07-09 03:35:00,
2013-07-08 22:40:00,85.1,64.4,30.00,SSW,209,6.0,6.0,50,0.00,,,0.00,Wunderground v.1.15,2013-07-09 03:40:00,
2013-07-08 22:45:00,85.0,63.7,30.01,SSW,195,6.0,6.0,49,0.00,,,0.00,Wunderground v.1.15,2013-07-09 03:45:00,
2013-07-08 22:55:00,84.8,63.5,30.02,SSE,163,6.0,7.0,49,0.00,,,0.00,Wunderground v.1.15,2013-07-09 03:55:00,
2013-07-08 23:01:00,84.7,63.4,30.01,South,189,5.0,9.0,49,0.00,,,0.00,Wunderground v.1.15,2013-07-09 04:01:00,
2013-07-08 23:05:00,84.5,63.2,30.01,South,185,4.0,10.0,49,0.00,,,0.00,Wunderground v.1.15,2013-07-09 04:05:00,
2013-07-08 23:10:00,84.4,63.2,30.02,SSW,192,4.0,4.0,49,0.00,,,0.00,Wunderground v.1.15,2013-07-09 04:10:00,
2013-07-08 23:15:00,84.2,63.0,30.01,South,188,4.0,7.0,49,0.00,,,0.00,Wunderground v.1.15,2013-07-09 04:15:00,
2013-07-08 23:20:00,84.1,63.5,30.01,South,184,3.0,3.0,50,0.00,,,0.00,Wunderground v.1.15,2013-07-09 04:20:00,
2013-07-08 23:25:00,83.9,63.3,30.01,South,190,2.0,3.0,50,0.00,,,0.00,Wunderground v.1.15,2013-07-09 04:25:00,
2013-07-08 23:35:00,83.7,63.7,30.02,SSW,196,3.0,3.0,51,0.00,,,0.00,Wunderground v.1.15,2013-07-09 04:35:00,
2013-07-08 23:40:00,83.6,64.1,30.02,South,191,3.0,3.0,52,0.00,,,0.00,Wunderground v.1.15,2013-07-09 04:40:00,
2013-07-08 23:45:00,83.4,63.9,30.02,SSW,195,2.0,3.0,52,0.00,,,0.00,Wunderground v.1.15,2013-07-09 04:45:00,
2013-07-08 23:50:00,83.2,64.3,30.02,South,178,2.0,2.0,53,0.00,,,0.00,Wunderground v.1.15,2013-07-09 04:50:00,